Location: Unspecified
(0.0000°N, 0.0000°E)
Time: 12:54:59
(UTC+00:00)

Envisat - Pass Details

Date: 21 January 2018
Orbit: 764 x 766 km, 98.2° (Epoch: 22 July)

Event Time Altitude Azimuth Distance (km) Brightness Sun altitude
Rises 21:10:08 0° 205° (SSW) 3,228 6.8 -41.4°
Reaches altitude 10° 21:13:56 10° 234° (SW) 2,299 6.1 -42.3°
Maximum altitude 21:15:53 12° 257° (WSW) 2,146 5.9 -42.7°
Enters shadow 21:16:39 12° 267° (W) 2,170 5.8 -42.9°
